DW9948 Weather Reports


time (UTC)temp
C
wind
direction
speed
KPH
gust
KPH
rain 1hr
cm
rain 24hr
cm
rain mn
cm
humidity
%
barometer
mb
20260906181804 39 291 3.2 14.5 0.00 0.00 0.00 31 1011.8
20260906180804 39 102 3.2 11.3 0.00 0.00 0.00 29 1011.9
20260906175804 39 179 4.8 9.7 0.00 0.00 0.00 28 1012.2
20260906174803 39 60 1.6 8.0 0.00 0.00 0.00 28 1012.5
20260906173804 40 70 1.6 8.0 0.00 0.00 0.00 29 1012.6
20260906171804 40 98 1.6 8.0 0.00 0.00 0.00 31 1013.0
20260906170804 38 344 1.6 9.7 0.00 0.00 0.00 34 1013.2
20260906165804 38 180 3.2 9.7 0.00 0.00 0.00 33 1013.3
20260906163804 37 76 1.6 8.0 0.00 0.00 0.00 37 1013.4
20260906161804 36 72 3.2 9.7 0.00 0.00 0.00 39 1013.5
20260906155807 35 41 1.6 8.0 0.00 0.00 0.00 43 1013.7
20260906154809 34 341 1.6 3.2 0.00 0.00 0.00 44 1013.6
20260906154051 33 328 0.0 8.0 0.00 0.00 0.00 46 1013.6
20260906151804 33 302 0.0 1.6 0.00 0.00 0.00 49 1013.6
20260906150804 32 244 0.0 0.0 0.00 0.00 0.00 50 1013.5
20260906145803 31 228 0.0 0.0 0.00 0.00 0.00 53 1013.6
20260906144804 30 125 0.0 1.6 0.00 0.00 0.00 57 1013.5
20260906142803 28 129 0.0 1.6 0.00 0.00 0.00 60 1013.4
20260906141803 28 141 0.0 1.6 0.00 0.00 0.00 62 1013.4
20260906140804 27 132 3.2 9.7 0.00 0.00 0.00 64 1013.4
20260906135803 27 106 0.0 8.0 0.00 0.00 0.00 65 1013.3
20260906134804 26 145 0.0 0.0 0.00 0.00 0.00 68 1013.3
20260906130804 24 58 0.0 0.0 0.00 0.00 0.00 75 1013.2
20260906125804 24 58 0.0 0.0 0.00 0.00 0.00 76 1013.0
20260906124804 23 58 0.0 0.0 0.00 0.00 0.00 76 1012.8
20260906122804 23 58 0.0 0.0 0.00 0.00 0.00 77 1012.5
20260906120804 23 58 0.0 0.0 0.00 0.00 0.00 78 1012.4
20260906115804 23 57 0.0 0.0 0.00 0.00 0.00 78 1012.2
20260906114804 23 58 0.0 0.0 0.00 0.00 0.00 78 1012.0
20260906113804 23 58 0.0 0.0 0.00 0.00 0.00 77 1012.0
20260906112803 23 58 0.0 0.0 0.00 0.00 0.00 76 1012.0
20260906105803 23 58 0.0 0.0 0.00 0.00 0.00 74 1011.9
20260906103804 24 58 0.0 0.0 0.00 0.00 0.00 73 1011.9
20260906102804 24 58 0.0 0.0 0.00 0.00 0.00 72 1011.9
20260906101804 25 58 0.0 0.0 0.00 0.00 0.00 71 1011.9
20260906095804 25 58 0.0 0.0 0.00 0.00 0.00 69 1011.7
20260906093804 25 58 0.0 0.0 0.00 0.00 0.00 68 1011.6
20260906092804 26 58 0.0 0.0 0.00 0.00 0.00 68 1011.6
20260906090804 26 58 0.0 0.0 0.00 0.00 0.00 66 1011.6
20260906085804 26 58 0.0 0.0 0.00 0.00 0.00 65 1011.5
20260906083804 26 59 0.0 0.0 0.00 0.00 0.00 65 1011.4
20260906080804 27 59 0.0 0.0 0.00 0.00 0.00 63 1011.4
20260906075804 27 61 0.0 0.0 0.00 0.00 0.00 63 1011.4
20260906074804 27 63 0.0 0.0 0.00 0.00 0.00 62 1011.4
20260906073803 27 70 0.0 0.0 0.00 0.00 0.00 61 1011.3
20260906072804 27 115 0.0 1.6 0.00 0.00 0.00 61 1011.3
20260906071804 27 59 0.0 3.2 0.00 0.00 0.00 61 1011.3
20260906070804 27 46 0.0 1.6 0.00 0.00 0.00 62 1011.4
20260906065803 26 33 0.0 1.6 0.00 0.00 0.00 63 1011.4
20260906064804 26 27 0.0 0.0 0.00 0.00 0.00 63 1011.4
20260906063804 27 27 0.0 1.6 0.00 0.00 0.00 64 1011.5
20260906062804 27 13 0.0 0.0 0.00 0.00 0.00 64 1011.6
20260906061805 27 13 0.0 1.6 0.00 0.00 0.00 63 1011.5
20260906055804 27 13 0.0 1.6 0.00 0.00 0.00 63 1011.6
20260906054804 27 13 0.0 0.0 0.00 0.00 0.00 62 1011.7
20260906053804 27 13 0.0 1.6 0.00 0.00 0.00 62 1011.6
20260906052804 27 13 0.0 1.6 0.00 0.00 0.00 62 1011.7
20260906051804 27 38 0.0 1.6 0.00 0.00 0.00 63 1011.7
20260906050836 27 38 0.0 3.2 0.00 0.00 0.00 63 1011.7
20260906045804 27 30 0.0 1.6 0.00 0.00 0.00 64 1011.5
20260906044804 27 30 0.0 1.6 0.00 0.00 0.00 65 1011.5
20260906043804 27 352 0.0 0.0 0.00 0.00 0.00 66 1011.6
20260906042804 27 352 0.0 0.0 0.00 0.00 0.00 67 1011.6
20260906041804 27 352 0.0 0.0 0.00 0.00 0.00 66 1011.7
20260906040806 27 352 3.2 3.2 0.00 0.00 0.00 64 1011.7
20260906035804 27 108 0.0 0.0 0.00 0.00 0.00 63 1011.6
20260906034804 27 108 0.0 0.0 0.00 0.00 0.00 62 1011.6
20260906033804 28 108 0.0 0.0 0.00 0.00 0.00 62 1011.5
20260906032804 28 108 0.0 0.0 0.00 0.00 0.00 60 1011.3
20260906030804 28 108 0.0 0.0 0.00 0.00 0.00 58 1011.1
20260906025804 28 108 0.0 0.0 0.00 0.00 0.00 57 1011.0
20260906024804 29 108 0.0 0.0 0.00 0.00 0.00 57 1010.9
20260906023804 30 108 0.0 0.0 0.00 0.00 0.00 54 1010.8
20260906022804 30 108 0.0 0.0 0.00 0.00 0.00 53 1010.6
20260906021804 30 108 0.0 0.0 0.00 0.00 0.00 52 1010.5
20260906020804 30 108 0.0 0.0 0.00 0.00 0.00 52 1010.4
20260906015804 30 108 0.0 0.0 0.00 0.00 0.00 51 1010.3
20260906014804 31 108 0.0 0.0 0.00 0.00 0.00 49 1010.2
20260906013804 31 108 0.0 0.0 0.00 0.00 0.00 48 1010.1
20260906012804 31 108 0.0 0.0 0.00 0.00 0.00 46 1010.0
20260906011804 32 108 0.0 0.0 0.00 0.00 0.00 45 1010.0
20260906010804 32 108 0.0 1.6 0.00 0.00 0.00 44 1009.9
20260906005804 33 108 0.0 0.0 0.00 0.00 0.00 43 1009.9
20260906004804 33 108 0.0 0.0 0.00 0.00 0.00 42 1009.9
20260906002804 35 108 0.0 0.0 0.00 0.00 0.00 38 1010.0
20260906001804 35 108 0.0 0.0 0.00 0.00 0.00 37 1010.0
20260906000804 36 109 0.0 1.6 0.00 0.00 0.00 36 1010.0
20260905234804 36 127 0.0 3.2 0.00 0.00 0.00 34 1009.9
20260905233804 37 135 0.0 1.6 0.00 0.00 0.00 33 1009.8
20260905232804 37 22 0.0 1.6 0.00 0.00 0.00 32 1009.8
20260905231804 37 60 0.0 8.0 0.00 0.00 0.00 32 1009.7
20260905230805 37 121 0.0 3.2 0.00 0.00 0.00 32 1009.7
20260905224804 38 133 3.2 8.0 0.00 0.00 0.00 30 1009.8
20260905223804 38 63 0.0 3.2 0.00 0.00 0.00 31 1009.8
20260905221834 38 148 0.0 3.2 0.00 0.00 0.00 29 1009.9
20260905220804 38 49 0.0 8.0 0.00 0.00 0.00 29 1009.9
20260905215804 38 128 1.6 8.0 0.00 0.00 0.00 29 1010.1
20260905213804 38 70 1.6 11.3 0.00 0.00 0.00 30 1010.2
20260905212804 38 64 1.6 8.0 0.00 0.00 0.00 31 1010.2
20260905211804 38 172 3.2 8.0 0.00 0.00 0.00 31 1010.4
20260905210804 37 172 0.0 8.0 0.00 0.00 0.00 32 1010.6
20260905205804 37 265 0.0 1.6 0.00 0.00 0.00 32 1010.8
20260905202804 38 146 1.6 8.0 0.00 0.00 0.00 32 1011.2
20260905201804 39 141 4.8 12.9 0.00 0.00 0.00 31 1011.2
20260905195804 38 303 0.0 9.7 0.00 0.00 0.00 31 1011.5
20260905194804 38 158 3.2 9.7 0.00 0.00 0.00 34 1011.6
20260905193804 37 105 0.0 8.0 0.00 0.00 0.00 34 1011.8
20260905190804 38 176 4.8 11.3 0.00 0.00 0.00 33 1012.1
20260905185804 38 171 4.8 12.9 0.00 0.00 0.00 33 1012.3
20260905184803 38 205 1.6 12.9 0.00 0.00 0.00 33 1012.5
20260905183804 39 186 1.6 9.7 0.00 0.00 0.00 31 1012.6
20260905182804 38 102 1.6 9.7 0.00 0.00 0.00 33 1012.8